Location: Hylvaty SDH
(49.9612°N, 16.4057°E)
Time: 11:26:30
(UTC+01:00)

Tiros 1 - Pass Details

Date: 10 October 2020
Orbit: 630 x 663 km, 48.4° (Epoch: 28 October)

Event Time Altitude Azimuth Distance (km) Brightness Sun altitude
Rises 15:21:10 0° 278° (W) 2,947 11.0 23.4°
Reaches altitude 10° 15:23:32 10° 275° (W) 2,041 10.4 23.1°
Maximum altitude 15:28:08 56° 197° (SSW) 775 8.5 22.6°
Drops below altitude 10° 15:32:46 10° 120° (ESE) 2,058 9.6 22.0°
Sets 15:35:09 0° 116° (ESE) 2,972 10.4 21.8°
